This demonstration page uses our WeatherBlox Daily Observations layout. Learn more.

41.55636, -103.73856

Hourly Observations for April 7, 2019

Temp ( °F °C ) Dew Point ( °F °C ) Humidity (%) Winds ( mph kmh ) Pressure ( in mb ) Visibility ( mi km ) Precip ( " mm )
12:58 am 00:58 Mostly Cloudy 54 12.4 39 4.1 57 57 SW 6 9 29.82 1010 10 16.0934 0 0
1:58 am 01:58 Mostly Cloudy 53 11.5 39 3.7 59 59 W 8 13 29.82 1010 10 16.0934 0 0
2:58 am 02:58 Mostly Cloudy 53 11.4 34 1.3 50 50 W 15 24 29.83 1010 10 16.0934 0 0
3:58 am 03:58 Mostly Clear 49 9.6 34 1 55 55 W 15 24 29.85 1011 10 16.0934 0 0
4:58 am 04:58 Mostly Clear 47 8.4 31 -0.3 55 55 W 16 26 29.85 1011 10 16.0934 0 0
5:58 am 05:58 Partly Cloudy 47 8.6 28 -2.2 47 47 WNW 24 39 29.85 1011 10 16.0934 0 0
6:58 am 06:58 Mostly Cloudy 47 8.5 27 -2.9 45 45 WNW 22 35 29.87 1011 10 16.0934 0 0
7:58 am 07:58 Clear 45 7.1 27 -2.9 49 49 WNW 24 39 29.91 1013 10 16.0934 0 0
9:58 am 09:58 Clear 42 5.4 28 -2.4 58 58 WNW 25 41 29.94 1014 10 16.0934 0 0
10:58 am 10:58 Clear 41 4.8 27 -2.9 58 58 WNW 26 43 29.98 1015 10 16.0934 0 0
11:58 am 11:58 Clear 40 4.6 26 -3.2 57 57 WNW 24 39 30.01 1016 10 16.0934 0 0
12:58 pm 12:58 Sunny 41 4.8 27 -2.9 58 58 WNW 24 39 30.06 1018 10 16.0934 0 0
1:58 pm 13:58 Sunny 44 6.7 28 -2.2 53 53 NW 22 35 30.09 1019 10 16.0934 0 0
2:58 pm 14:58 Sunny 48 9.1 29 -1.8 47 47 NW 22 35 30.08 1019 10 16.0934 0 0
3:58 pm 15:58 Sunny 52 10.9 27 -2.7 39 39 WNW 24 39 30.08 1019 10 16.0934 0 0
4:58 pm 16:58 Sunny 53 11.9 27 -2.8 36 36 NW 26 43 30.08 1019 10 16.0934 0 0
5:58 pm 17:58 Sunny 58 14.6 26 -3.4 29 29 WNW 28 44 30.03 1017 10 16.0934 0 0
6:58 pm 18:58 Sunny 61 15.9 24 -4.3 25 25 W 20 31 30 1016 10 16.0934 0 0
7:58 pm 19:58 Sunny 63 17.3 23 -4.9 22 22 WNW 26 43 29.98 1015 10 16.0934 0 0
8:58 pm 20:58 Sunny 64 18 18 -7.6 17 17 WNW 24 39 29.96 1015 10 16.0934 0 0
9:58 pm 21:58 Sunny 66 18.7 17 -8.3 15 15 WNW 29 46 29.94 1014 10 16.0934 0 0
10:58 pm 22:58 Sunny 63 17.2 22 -5.3 21 21 WNW 22 35 29.97 1015 10 16.0934 0 0
11:58 pm 23:58 Sunny 61 16 22 -5.5 23 23 WNW 20 31 29.98 1015 10 16.0934 0 0

Powered by AerisWeather